Time,TemperatureF,DewpointF,PressureIn,WindDirection,WindDirectionDegrees,WindSpeedMPH,WindSpeedGustMPH,Humidity,HourlyPrecipIn,Conditions,Clouds,dailyrainin,SoftwareType,DateUTC
2013-02-23 00:03:00,48.2,33.7,30.22,NNW,342,0.0,0.0,57,0.00,,,0.00,WUHU216WMR968SP,2013-02-23 08:03:00,
2013-02-23 00:08:00,48.2,33.7,30.25,NNW,342,0.0,0.0,57,0.00,,,0.00,WUHU216WMR968SP,2013-02-23 08:08:00,
2013-02-23 00:14:00,48.2,33.7,30.25,NNW,342,0.0,0.0,57,0.00,,,0.00,WUHU216WMR968SP,2013-02-23 08:14:00,
2013-02-23 00:19:00,48.2,34.2,30.25,NNW,342,0.0,0.0,58,0.00,,,0.00,WUHU216WMR968SP,2013-02-23 08:19:00,
2013-02-23 00:24:00,47.7,33.7,30.25,NNW,342,0.0,0.0,58,0.00,,,0.00,WUHU216WMR968SP,2013-02-23 08:24:00,
2013-02-23 00:29:00,47.7,33.7,30.25,NNW,342,0.0,0.0,58,0.00,,,0.00,WUHU216WMR968SP,2013-02-23 08:29:00,
2013-02-23 00:34:00,47.3,32.9,30.25,NNW,342,0.0,0.0,57,0.00,,,0.00,WUHU216WMR968SP,2013-02-23 08:34:00,
2013-02-23 00:39:00,47.3,32.9,30.25,NNW,342,0.0,0.0,57,0.00,,,0.00,WUHU216WMR968SP,2013-02-23 08:39:00,
2013-02-23 00:44:00,47.5,33.1,30.25,NNW,342,0.0,0.0,57,0.00,,,0.00,WUHU216WMR968SP,2013-02-23 08:44:00,
2013-02-23 00:49:00,47.7,33.3,30.25,NNW,342,0.0,0.0,57,0.00,,,0.00,WUHU216WMR968SP,2013-02-23 08:49:00,
2013-02-23 00:54:00,47.8,33.4,30.25,NNW,342,0.0,0.0,57,0.00,,,0.00,WUHU216WMR968SP,2013-02-23 08:54:00,
2013-02-23 00:59:00,47.7,33.3,30.25,NNW,342,0.0,0.0,57,0.00,,,0.00,WUHU216WMR968SP,2013-02-23 08:59:00,
2013-02-23 01:04:00,47.7,33.3,30.25,NNW,342,0.0,2.7,57,0.00,,,0.00,WUHU216WMR968SP,2013-02-23 09:04:00,
2013-02-23 01:09:00,47.7,31.9,30.22,NNW,342,0.0,2.7,54,0.00,,,0.00,WUHU216WMR968SP,2013-02-23 09:09:00,
2013-02-23 01:14:00,47.8,33.4,30.22,NNW,342,0.0,0.0,57,0.00,,,0.00,WUHU216WMR968SP,2013-02-23 09:14:00,
2013-02-23 01:19:00,47.5,31.7,30.22,NNW,342,0.0,0.0,54,0.00,,,0.00,WUHU216WMR968SP,2013-02-23 09:19:00,
2013-02-23 01:24:00,47.1,31.3,30.25,NNW,342,0.0,0.0,54,0.00,,,0.00,WUHU216WMR968SP,2013-02-23 09:24:00,
2013-02-23 01:29:00,47.1,31.3,30.25,NNW,342,0.0,0.0,54,0.00,,,0.00,WUHU216WMR968SP,2013-02-23 09:29:00,
2013-02-23 01:34:00,47.3,31.5,30.25,NNW,342,0.0,0.0,54,0.00,,,0.00,WUHU216WMR968SP,2013-02-23 09:34:00,
2013-02-23 01:39:00,47.5,31.7,30.25,NNW,342,0.0,0.0,54,0.00,,,0.00,WUHU216WMR968SP,2013-02-23 09:39:00,
2013-02-23 01:44:00,47.5,33.1,30.25,NNW,342,0.0,0.0,57,0.00,,,0.00,WUHU216WMR968SP,2013-02-23 09:44:00,
2013-02-23 01:49:00,47.7,33.3,30.25,NNW,342,0.0,0.0,57,0.00,,,0.00,WUHU216WMR968SP,2013-02-23 09:49:00,
2013-02-23 01:54:00,48.0,33.5,30.25,North,353,0.0,0.0,57,0.00,,,0.00,WUHU216WMR968SP,2013-02-23 09:54:00,
2013-02-23 01:59:00,48.2,34.2,30.25,North,353,0.0,0.0,58,0.00,,,0.00,WUHU216WMR968SP,2013-02-23 09:59:00,
2013-02-23 02:04:00,48.2,34.2,30.25,North,4,2.2,3.1,58,0.00,,,0.00,WUHU216WMR968SP,2013-02-23 10:04:00,
2013-02-23 02:09:00,48.2,33.7,30.22,North,4,2.2,3.1,57,0.00,,,0.00,WUHU216WMR968SP,2013-02-23 10:09:00,
2013-02-23 02:14:00,48.0,33.5,30.22,North,4,2.2,3.1,57,0.00,,,0.00,WUHU216WMR968SP,2013-02-23 10:14:00,
2013-02-23 02:19:00,48.0,33.5,30.22,North,4,0.0,3.1,57,0.00,,,0.00,WUHU216WMR968SP,2013-02-23 10:19:00,
2013-02-23 02:24:00,47.7,31.9,30.22,North,4,0.0,0.0,54,0.00,,,0.00,WUHU216WMR968SP,2013-02-23 10:24:00,
2013-02-23 02:29:00,47.1,31.3,30.22,North,353,0.0,2.2,54,0.00,,,0.00,WUHU216WMR968SP,2013-02-23 10:29:00,
2013-02-23 02:34:00,46.6,30.9,30.22,North,349,0.0,3.1,54,0.00,,,0.00,WUHU216WMR968SP,2013-02-23 10:34:00,
2013-02-23 02:39:00,46.8,31.0,30.22,North,0,3.6,5.4,54,0.00,,,0.00,WUHU216WMR968SP,2013-02-23 10:39:00,
2013-02-23 02:44:00,47.1,30.4,30.22,NNE,18,3.6,5.4,52,0.00,,,0.00,WUHU216WMR968SP,2013-02-23 10:44:00,
2013-02-23 02:49:00,47.3,30.6,30.22,NNE,18,0.0,4.9,52,0.00,,,0.00,WUHU216WMR968SP,2013-02-23 10:49:00,
2013-02-23 02:54:00,47.5,30.7,30.22,NNE,18,0.0,4.9,52,0.00,,,0.00,WUHU216WMR968SP,2013-02-23 10:54:00,
2013-02-23 02:59:00,47.5,30.7,30.22,NNE,18,0.0,0.0,52,0.00,,,0.00,WUHU216WMR968SP,2013-02-23 10:59:00,
2013-02-23 03:04:00,47.3,30.6,30.22,NNE,18,0.0,0.0,52,0.00,,,0.00,WUHU216WMR968SP,2013-02-23 11:04:00,
2013-02-23 03:09:00,46.8,30.1,30.22,NNE,18,0.0,0.0,52,0.00,,,0.00,WUHU216WMR968SP,2013-02-23 11:09:00,
2013-02-23 03:14:00,46.4,29.7,30.22,NNE,17,0.0,0.0,52,0.00,,,0.00,WUHU216WMR968SP,2013-02-23 11:14:00,
2013-02-23 03:19:00,46.6,29.9,30.22,NNE,17,0.0,0.0,52,0.00,,,0.00,WUHU216WMR968SP,2013-02-23 11:19:00,
2013-02-23 03:24:00,46.6,29.9,30.22,NNE,16,0.0,0.0,52,0.00,,,0.00,WUHU216WMR968SP,2013-02-23 11:24:00,
2013-02-23 03:29:00,46.8,30.1,30.22,NNE,17,0.0,0.0,52,0.00,,,0.00,WUHU216WMR968SP,2013-02-23 11:29:00,
2013-02-23 03:34:00,46.4,30.7,30.22,NNE,17,0.0,0.0,54,0.00,,,0.00,WUHU216WMR968SP,2013-02-23 11:34:00,
2013-02-23 03:39:00,46.2,30.9,30.22,NNE,15,0.0,0.0,55,0.00,,,0.00,WUHU216WMR968SP,2013-02-23 11:39:00,
2013-02-23 03:44:00,46.2,30.9,30.22,North,6,0.0,0.0,55,0.00,,,0.00,WUHU216WMR968SP,2013-02-23 11:44:00,
2013-02-23 03:49:00,46.4,32.0,30.22,North,5,0.0,0.0,57,0.00,,,0.00,WUHU216WMR968SP,2013-02-23 11:49:00,
2013-02-23 03:54:00,46.4,32.0,30.25,North,5,0.0,0.0,57,0.00,,,0.00,WUHU216WMR968SP,2013-02-23 11:54:00,
2013-02-23 03:59:00,46.4,32.0,30.25,North,5,0.0,0.0,57,0.00,,,0.00,WUHU216WMR968SP,2013-02-23 11:59:00,
2013-02-23 04:04:00,46.4,32.0,30.25,North,5,0.0,0.0,57,0.00,,,0.00,WUHU216WMR968SP,2013-02-23 12:04:00,
2013-02-23 04:09:00,46.4,32.0,30.22,North,5,0.0,0.0,57,0.00,,,0.00,WUHU216WMR968SP,2013-02-23 12:09:00,
2013-02-23 04:14:00,46.4,32.0,30.22,North,5,0.0,0.0,57,0.00,,,0.00,WUHU216WMR968SP,2013-02-23 12:14:00,
2013-02-23 04:20:00,46.2,31.9,30.22,North,5,0.0,0.0,57,0.00,,,0.00,WUHU216WMR968SP,2013-02-23 12:20:00,
2013-02-23 04:25:00,46.2,31.9,30.22,North,5,0.0,0.0,57,0.00,,,0.00,WUHU216WMR968SP,2013-02-23 12:25:00,
2013-02-23 04:30:00,46.2,31.9,30.22,North,5,0.0,0.0,57,0.00,,,0.00,WUHU216WMR968SP,2013-02-23 12:30:00,
2013-02-23 04:35:00,45.9,31.6,30.22,North,5,0.0,0.0,57,0.00,,,0.00,WUHU216WMR968SP,2013-02-23 12:35:00,
2013-02-23 04:40:00,45.5,31.2,30.22,North,3,0.0,0.0,57,0.00,,,0.00,WUHU216WMR968SP,2013-02-23 12:40:00,
2013-02-23 04:45:00,45.5,31.2,30.22,NNE,17,2.2,3.1,57,0.00,,,0.00,WUHU216WMR968SP,2013-02-23 12:45:00,
2013-02-23 04:50:00,45.5,31.2,30.22,NNE,19,3.1,4.9,57,0.00,,,0.00,WUHU216WMR968SP,2013-02-23 12:50:00,
2013-02-23 04:55:00,45.7,30.5,30.22,NNE,19,0.0,4.9,55,0.00,,,0.00,WUHU216WMR968SP,2013-02-23 12:55:00,
2013-02-23 05:00:00,45.9,30.7,30.22,NNE,19,0.0,3.1,55,0.00,,,0.00,WUHU216WMR968SP,2013-02-23 13:00:00,
2013-02-23 05:05:00,46.2,31.9,30.22,NNE,19,0.0,0.0,57,0.00,,,0.00,WUHU216WMR968SP,2013-02-23 13:05:00,
2013-02-23 05:10:00,46.2,31.9,30.22,NNE,19,0.0,0.0,57,0.00,,,0.00,WUHU216WMR968SP,2013-02-23 13:10:00,
2013-02-23 05:15:00,46.0,30.8,30.22,NNE,19,0.0,0.0,55,0.00,,,0.00,WUHU216WMR968SP,2013-02-23 13:15:00,
2013-02-23 05:20:00,46.2,30.9,30.22,NNE,19,0.0,0.0,55,0.00,,,0.00,WUHU216WMR968SP,2013-02-23 13:20:00,
2013-02-23 05:25:00,46.2,30.9,30.22,NNE,19,0.0,0.0,55,0.00,,,0.00,WUHU216WMR968SP,2013-02-23 13:25:00,
2013-02-23 05:30:00,46.0,31.7,30.22,NNE,19,0.0,0.0,57,0.00,,,0.00,WUHU216WMR968SP,2013-02-23 13:30:00,
2013-02-23 05:35:00,45.9,31.6,30.22,NNE,19,0.0,0.0,57,0.00,,,0.00,WUHU216WMR968SP,2013-02-23 13:35:00,
2013-02-23 05:40:00,45.9,31.6,30.22,NNE,19,0.0,0.0,57,0.00,,,0.00,WUHU216WMR968SP,2013-02-23 13:40:00,
2013-02-23 05:45:00,45.9,31.6,30.22,NNE,19,0.0,0.0,57,0.00,,,0.00,WUHU216WMR968SP,2013-02-23 13:45:00,
2013-02-23 05:50:00,45.7,31.4,30.22,NNE,19,0.0,0.0,57,0.00,,,0.00,WUHU216WMR968SP,2013-02-23 13:50:00,
2013-02-23 05:55:00,45.3,31.4,30.22,NNE,19,0.0,0.0,58,0.00,,,0.00,WUHU216WMR968SP,2013-02-23 13:55:00,
2013-02-23 06:00:00,45.0,31.2,30.22,NNE,19,0.0,0.0,58,0.00,,,0.00,WUHU216WMR968SP,2013-02-23 14:00:00,
2013-02-23 06:05:00,44.2,30.4,30.22,NNE,19,0.0,0.0,58,0.00,,,0.00,WUHU216WMR968SP,2013-02-23 14:05:00,
2013-02-23 06:10:00,44.4,30.6,30.22,NNE,19,0.0,0.0,58,0.00,,,0.00,WUHU216WMR968SP,2013-02-23 14:10:00,
2013-02-23 06:15:00,45.0,31.2,30.22,NNE,19,0.0,0.0,58,0.00,,,0.00,WUHU216WMR968SP,2013-02-23 14:15:00,
2013-02-23 06:20:00,45.5,31.6,30.22,NNE,19,0.0,0.0,58,0.00,,,0.00,WUHU216WMR968SP,2013-02-23 14:20:00,
2013-02-23 06:25:00,46.0,32.1,30.22,NNE,19,0.0,0.0,58,0.00,,,0.00,WUHU216WMR968SP,2013-02-23 14:25:00,
2013-02-23 06:30:00,46.4,32.5,30.22,NNE,19,0.0,0.0,58,0.00,,,0.00,WUHU216WMR968SP,2013-02-23 14:30:00,
2013-02-23 06:35:00,46.6,32.7,30.22,NNE,19,0.0,0.0,58,0.00,,,0.00,WUHU216WMR968SP,2013-02-23 14:35:00,
2013-02-23 06:40:00,45.5,31.6,30.22,NNE,19,0.0,0.0,58,0.00,,,0.00,WUHU216WMR968SP,2013-02-23 14:40:00,
2013-02-23 06:45:00,45.0,31.2,30.22,NNE,19,0.0,0.0,58,0.00,,,0.00,WUHU216WMR968SP,2013-02-23 14:45:00,
2013-02-23 06:50:00,45.3,31.4,30.22,NNE,12,0.0,0.0,58,0.00,,,0.00,WUHU216WMR968SP,2013-02-23 14:50:00,
2013-02-23 06:55:00,45.7,31.8,30.22,North,11,0.0,0.0,58,0.00,,,0.00,WUHU216WMR968SP,2013-02-23 14:55:00,
2013-02-23 07:00:00,46.2,32.3,30.22,North,11,0.0,0.0,58,0.00,,,0.00,WUHU216WMR968SP,2013-02-23 15:00:00,
2013-02-23 07:05:00,46.9,32.5,30.22,NNE,12,0.0,0.0,57,0.00,,,0.00,WUHU216WMR968SP,2013-02-23 15:05:00,
2013-02-23 07:10:00,47.5,33.1,30.22,North,11,0.0,0.0,57,0.00,,,0.00,WUHU216WMR968SP,2013-02-23 15:10:00,
2013-02-23 07:15:00,48.2,33.3,30.22,NNE,12,0.0,0.0,56,0.00,,,0.00,WUHU216WMR968SP,2013-02-23 15:15:00,
2013-02-23 07:20:00,48.7,33.8,30.22,NNE,12,0.0,0.0,56,0.00,,,0.00,WUHU216WMR968SP,2013-02-23 15:20:00,
2013-02-23 07:25:00,48.9,33.9,30.22,NNE,30,0.0,0.0,56,0.00,,,0.00,WUHU216WMR968SP,2013-02-23 15:25:00,
2013-02-23 07:30:00,49.3,34.3,30.22,NNE,30,0.0,0.0,56,0.00,,,0.00,WUHU216WMR968SP,2013-02-23 15:30:00,
2013-02-23 07:35:00,49.8,34.8,30.22,NNE,30,0.0,0.0,56,0.00,,,0.00,WUHU216WMR968SP,2013-02-23 15:35:00,
2013-02-23 07:40:00,50.5,35.4,30.22,NNE,30,0.0,0.0,56,0.00,,,0.00,WUHU216WMR968SP,2013-02-23 15:40:00,
2013-02-23 07:45:00,51.1,36.0,30.22,NNE,30,0.0,0.0,56,0.00,,,0.00,WUHU216WMR968SP,2013-02-23 15:45:00,
2013-02-23 07:50:00,51.3,36.2,30.22,North,350,0.0,0.0,56,0.00,,,0.00,WUHU216WMR968SP,2013-02-23 15:50:00,
2013-02-23 07:55:00,51.4,36.3,30.22,NNW,348,0.0,0.0,56,0.00,,,0.00,WUHU216WMR968SP,2013-02-23 15:55:00,
2013-02-23 08:00:00,51.6,36.5,30.22,ENE,77,0.0,3.1,56,0.00,,,0.00,WUHU216WMR968SP,2013-02-23 16:00:00,
2013-02-23 08:05:00,52.2,35.6,30.22,ENE,77,0.0,3.1,53,0.00,,,0.00,WUHU216WMR968SP,2013-02-23 16:05:00,
2013-02-23 08:10:00,52.7,36.1,30.22,SSE,156,0.0,0.0,53,0.00,,,0.00,WUHU216WMR968SP,2013-02-23 16:10:00,
2013-02-23 08:15:00,53.4,36.7,30.22,SSE,166,0.0,0.0,53,0.00,,,0.00,WUHU216WMR968SP,2013-02-23 16:15:00,
2013-02-23 08:20:00,54.0,38.3,30.19,South,184,0.0,0.0,55,0.00,,,0.00,WUHU216WMR968SP,2013-02-23 16:20:00,
2013-02-23 08:25:00,54.5,37.7,30.19,SSW,201,0.0,0.0,53,0.00,,,0.00,WUHU216WMR968SP,2013-02-23 16:25:00,
2013-02-23 08:30:00,54.7,37.9,30.19,SW,215,2.7,4.0,53,0.00,,,0.00,WUHU216WMR968SP,2013-02-23 16:30:00,
2013-02-23 08:35:00,54.9,38.1,30.19,SW,235,2.7,4.0,53,0.00,,,0.00,WUHU216WMR968SP,2013-02-23 16:35:00,
2013-02-23 08:40:00,55.0,38.2,30.19,SSW,197,0.0,4.0,53,0.00,,,0.00,WUHU216WMR968SP,2013-02-23 16:40:00,
2013-02-23 08:45:00,55.4,38.1,30.19,South,177,2.2,4.0,52,0.00,,,0.00,WUHU216WMR968SP,2013-02-23 16:45:00,
2013-02-23 08:50:00,55.8,37.4,30.16,SSW,212,3.1,4.0,50,0.00,,,0.00,WUHU216WMR968SP,2013-02-23 16:50:00,
2013-02-23 08:55:00,56.1,37.7,30.16,South,186,2.7,4.0,50,0.00,,,0.00,WUHU216WMR968SP,2013-02-23 16:55:00,
2013-02-23 09:00:00,56.3,37.9,30.16,South,187,0.0,4.0,50,0.00,,,0.00,WUHU216WMR968SP,2013-02-23 17:00:00,
2013-02-23 09:05:00,56.5,38.1,30.16,SSW,193,3.1,4.0,50,0.00,,,0.00,WUHU216WMR968SP,2013-02-23 17:05:00,
2013-02-23 09:10:00,56.7,38.3,30.16,SSW,197,0.0,4.0,50,0.00,,,0.00,WUHU216WMR968SP,2013-02-23 17:10:00,
2013-02-23 09:15:00,57.2,38.2,30.16,SSW,210,3.1,4.0,49,0.00,,,0.00,WUHU216WMR968SP,2013-02-23 17:15:00,
2013-02-23 09:20:00,57.2,38.2,30.16,WSW,239,3.1,4.5,49,0.00,,,0.00,WUHU216WMR968SP,2013-02-23 17:20:00,
2013-02-23 09:25:00,57.2,38.2,30.16,SSE,158,0.0,5.4,49,0.00,,,0.00,WUHU216WMR968SP,2013-02-23 17:25:00,
2013-02-23 09:30:00,57.6,38.6,30.16,SSW,209,3.1,5.4,49,0.00,,,0.00,WUHU216WMR968SP,2013-02-23 17:30:00,
2013-02-23 09:35:00,57.9,37.7,30.16,SSW,204,3.1,6.3,47,0.00,,,0.00,WUHU216WMR968SP,2013-02-23 17:35:00,
2013-02-23 09:40:00,58.3,39.2,30.16,South,190,2.7,6.3,49,0.00,,,0.00,WUHU216WMR968SP,2013-02-23 17:40:00,
2013-02-23 09:46:00,59.0,39.8,30.16,SW,214,0.0,6.3,49,0.00,,,0.00,WUHU216WMR968SP,2013-02-23 17:46:00,
2013-02-23 09:51:00,59.5,40.3,30.16,ESE,113,2.2,6.3,49,0.00,,,0.00,WUHU216WMR968SP,2013-02-23 17:51:00,
2013-02-23 09:56:00,60.1,40.9,30.16,South,184,2.7,4.9,49,0.00,,,0.00,WUHU216WMR968SP,2013-02-23 17:56:00,
2013-02-23 10:01:00,60.6,41.3,30.16,SE,146,2.2,4.9,49,0.00,,,0.00,WUHU216WMR968SP,2013-02-23 18:01:00,
2013-02-23 10:06:00,61.2,40.2,30.16,NNE,26,2.2,4.9,46,0.00,,,0.00,WUHU216WMR968SP,2013-02-23 18:06:00,
2013-02-23 10:11:00,60.3,39.9,30.16,WSW,242,5.8,6.3,47,0.00,,,0.00,WUHU216WMR968SP,2013-02-23 18:11:00,
2013-02-23 10:16:00,60.1,39.8,30.16,SW,236,4.5,6.3,47,0.00,,,0.00,WUHU216WMR968SP,2013-02-23 18:16:00,
2013-02-23 10:21:00,60.1,39.8,30.16,SW,221,0.0,6.3,47,0.00,,,0.00,WUHU216WMR968SP,2013-02-23 18:21:00,
2013-02-23 10:26:00,59.7,39.4,30.16,SW,232,2.2,4.9,47,0.00,,,0.00,WUHU216WMR968SP,2013-02-23 18:26:00,
2013-02-23 10:31:00,60.3,39.9,30.16,South,188,3.6,5.8,47,0.00,,,0.00,WUHU216WMR968SP,2013-02-23 18:31:00,
2013-02-23 10:36:00,61.2,40.2,30.16,East,95,3.1,5.8,46,0.00,,,0.00,WUHU216WMR968SP,2013-02-23 18:36:00,
2013-02-23 10:41:00,61.9,40.8,30.16,WSW,243,3.1,7.2,46,0.00,,,0.00,WUHU216WMR968SP,2013-02-23 18:41:00,
2013-02-23 10:46:00,62.4,41.3,30.16,WSW,238,3.6,7.2,46,0.00,,,0.00,WUHU216WMR968SP,2013-02-23 18:46:00,
2013-02-23 10:51:00,61.5,40.5,30.16,WSW,237,6.3,8.3,46,0.00,,,0.00,WUHU216WMR968SP,2013-02-23 18:51:00,
2013-02-23 10:56:00,61.0,40.0,30.16,WSW,238,3.1,8.3,46,0.00,,,0.00,WUHU216WMR968SP,2013-02-23 18:56:00,
2013-02-23 11:01:00,61.3,40.3,30.16,West,259,3.6,7.6,46,0.00,,,0.00,WUHU216WMR968SP,2013-02-23 19:01:00,
2013-02-23 11:06:00,61.3,40.3,30.16,WSW,241,5.4,8.1,46,0.00,,,0.00,WUHU216WMR968SP,2013-02-23 19:06:00,
2013-02-23 11:11:00,61.5,40.5,30.16,ESE,114,2.7,8.1,46,0.00,,,0.00,WUHU216WMR968SP,2013-02-23 19:11:00,
2013-02-23 11:16:00,61.9,40.8,30.16,SE,128,3.1,6.3,46,0.00,,,0.00,WUHU216WMR968SP,2013-02-23 19:16:00,
2013-02-23 11:21:00,62.4,41.3,30.13,ESE,110,3.1,6.3,46,0.00,,,0.00,WUHU216WMR968SP,2013-02-23 19:21:00,
2013-02-23 11:26:00,62.8,41.7,30.13,South,189,0.0,6.3,46,0.00,,,0.00,WUHU216WMR968SP,2013-02-23 19:26:00,
2013-02-23 11:31:00,63.0,41.8,30.13,SW,232,4.9,6.3,46,0.00,,,0.00,WUHU216WMR968SP,2013-02-23 19:31:00,
2013-02-23 11:36:00,63.1,41.9,30.13,SSW,209,3.6,8.3,46,0.00,,,0.00,WUHU216WMR968SP,2013-02-23 19:36:00,
2013-02-23 11:41:00,63.5,42.3,30.13,WSW,237,4.0,8.3,46,0.00,,,0.00,WUHU216WMR968SP,2013-02-23 19:41:00,
2013-02-23 11:46:00,63.0,41.8,30.13,SSW,194,5.8,7.6,46,0.00,,,0.00,WUHU216WMR968SP,2013-02-23 19:46:00,
2013-02-23 11:51:00,63.1,41.9,30.13,SW,226,3.1,8.7,46,0.00,,,0.00,WUHU216WMR968SP,2013-02-23 19:51:00,
2013-02-23 11:56:00,63.1,41.9,30.13,WNW,289,5.4,8.7,46,0.00,,,0.00,WUHU216WMR968SP,2013-02-23 19:56:00,
2013-02-23 12:01:00,63.1,41.9,30.13,SW,231,6.3,8.1,46,0.00,,,0.00,WUHU216WMR968SP,2013-02-23 20:01:00,
2013-02-23 12:06:00,63.1,41.9,30.10,SW,222,3.6,8.7,46,0.00,,,0.00,WUHU216WMR968SP,2013-02-23 20:06:00,
2013-02-23 12:11:00,63.1,41.9,30.10,WSW,256,7.2,8.7,46,0.00,,,0.00,WUHU216WMR968SP,2013-02-23 20:11:00,
2013-02-23 12:16:00,63.1,41.9,30.10,SW,225,4.5,8.1,46,0.00,,,0.00,WUHU216WMR968SP,2013-02-23 20:16:00,
2013-02-23 12:21:00,63.5,42.3,30.10,SW,228,4.5,7.6,46,0.00,,,0.00,WUHU216WMR968SP,2013-02-23 20:21:00,
2013-02-23 12:26:00,63.5,42.3,30.10,SW,229,4.0,9.6,46,0.00,,,0.00,WUHU216WMR968SP,2013-02-23 20:26:00,
2013-02-23 12:31:00,63.9,42.7,30.10,SW,216,4.9,9.6,46,0.00,,,0.00,WUHU216WMR968SP,2013-02-23 20:31:00,
2013-02-23 12:36:00,64.6,42.7,30.10,SW,216,4.9,10.5,45,0.00,,,0.00,WUHU216WMR968SP,2013-02-23 20:36:00,
2013-02-23 12:41:00,64.8,42.9,30.10,SW,217,3.6,10.5,45,0.00,,,0.00,WUHU216WMR968SP,2013-02-23 20:41:00,
2013-02-23 12:46:00,64.9,43.0,30.10,SSW,200,6.7,10.1,45,0.00,,,0.00,WUHU216WMR968SP,2013-02-23 20:46:00,
2013-02-23 12:51:00,64.9,43.0,30.07,SW,225,4.5,10.1,45,0.00,,,0.00,WUHU216WMR968SP,2013-02-23 20:51:00,
2013-02-23 12:56:00,64.9,43.0,30.07,South,185,4.5,8.7,45,0.00,,,0.00,WUHU216WMR968SP,2013-02-23 20:56:00,
2013-02-23 13:01:00,65.3,43.4,30.07,SW,234,3.1,6.3,45,0.00,,,0.00,WUHU216WMR968SP,2013-02-23 21:01:00,
2013-02-23 13:06:00,65.5,43.5,30.07,SW,216,5.4,10.1,45,0.00,,,0.00,WUHU216WMR968SP,2013-02-23 21:06:00,
2013-02-23 13:11:00,65.7,43.7,30.07,WSW,239,3.6,10.1,45,0.00,,,0.00,WUHU216WMR968SP,2013-02-23 21:11:00,
2013-02-23 13:16:00,65.7,43.7,30.07,NW,307,3.6,8.3,45,0.00,,,0.00,WUHU216WMR968SP,2013-02-23 21:16:00,
2013-02-23 13:21:00,65.7,43.7,30.04,South,178,4.0,8.3,45,0.00,,,0.00,WUHU216WMR968SP,2013-02-23 21:21:00,
2013-02-23 13:26:00,66.2,44.2,30.04,SW,229,3.1,10.1,45,0.00,,,0.00,WUHU216WMR968SP,2013-02-23 21:26:00,
2013-02-23 13:31:00,66.4,44.4,30.04,South,183,4.0,10.1,45,0.00,,,0.00,WUHU216WMR968SP,2013-02-23 21:31:00,
2013-02-23 13:36:00,66.6,44.5,30.04,WSW,237,4.5,8.7,45,0.00,,,0.00,WUHU216WMR968SP,2013-02-23 21:36:00,
2013-02-23 13:41:00,66.6,44.5,30.04,SW,236,6.3,8.7,45,0.00,,,0.00,WUHU216WMR968SP,2013-02-23 21:41:00,
2013-02-23 13:46:00,66.6,44.5,30.04,SSW,206,4.0,8.3,45,0.00,,,0.00,WUHU216WMR968SP,2013-02-23 21:46:00,
2013-02-23 13:51:00,66.7,44.6,30.04,SE,138,3.6,8.1,45,0.00,,,0.00,WUHU216WMR968SP,2013-02-23 21:51:00,
2013-02-23 13:56:00,66.6,44.5,30.04,SW,219,6.3,8.1,45,0.00,,,0.00,WUHU216WMR968SP,2013-02-23 21:56:00,
2013-02-23 14:01:00,66.6,44.5,30.04,SSW,204,4.9,10.1,45,0.00,,,0.00,WUHU216WMR968SP,2013-02-23 22:01:00,
2013-02-23 14:06:00,66.0,44.0,30.04,WSW,242,5.4,11.0,45,0.00,,,0.00,WUHU216WMR968SP,2013-02-23 22:06:00,
2013-02-23 14:11:00,65.5,43.5,30.04,SW,236,0.0,11.0,45,0.00,,,0.00,WUHU216WMR968SP,2013-02-23 22:11:00,
2013-02-23 14:16:00,65.3,43.4,30.04,WSW,241,0.0,8.7,45,0.00,,,0.00,WUHU216WMR968SP,2013-02-23 22:16:00,
2013-02-23 14:21:00,65.5,43.5,30.04,SSE,157,0.0,0.0,45,0.00,,,0.00,WUHU216WMR968SP,2013-02-23 22:21:00,
2013-02-23 14:26:00,65.5,43.5,30.04,SW,214,0.0,0.0,45,0.00,,,0.00,WUHU216WMR968SP,2013-02-23 22:26:00,
2013-02-23 14:31:00,65.5,45.3,30.04,SW,227,0.0,0.0,48,0.00,,,0.00,WUHU216WMR968SP,2013-02-23 22:31:00,
2013-02-23 14:36:00,65.5,45.3,30.04,ESE,122,0.0,0.0,48,0.00,,,0.00,WUHU216WMR968SP,2013-02-23 22:36:00,
2013-02-23 14:41:00,65.1,44.9,30.04,WSW,239,0.0,0.0,48,0.00,,,0.00,WUHU216WMR968SP,2013-02-23 22:41:00,
2013-02-23 14:46:00,64.2,44.1,30.04,SW,235,0.0,0.0,48,0.00,,,0.00,WUHU216WMR968SP,2013-02-23 22:46:00,
2013-02-23 14:51:00,64.2,44.1,30.01,SW,219,0.0,0.0,48,0.00,,,0.00,WUHU216WMR968SP,2013-02-23 22:51:00,
2013-02-23 14:56:00,64.6,44.5,30.01,SW,230,0.0,0.0,48,0.00,,,0.00,WUHU216WMR968SP,2013-02-23 22:56:00,
2013-02-23 15:01:00,63.9,43.8,30.01,SSW,194,0.0,0.0,48,0.00,,,0.00,WUHU216WMR968SP,2013-02-23 23:01:00,
2013-02-23 15:06:00,64.0,43.9,30.01,SW,219,0.0,0.0,48,0.00,,,0.00,WUHU216WMR968SP,2013-02-23 23:06:00,
2013-02-23 15:11:00,64.0,42.8,30.01,SSW,200,0.0,0.0,46,0.00,,,0.00,WUHU216WMR968SP,2013-02-23 23:11:00,
2013-02-23 15:16:00,64.2,42.9,30.01,SW,219,0.0,0.0,46,0.00,,,0.00,WUHU216WMR968SP,2013-02-23 23:16:00,
2013-02-23 15:21:00,64.2,42.9,30.01,WSW,247,0.0,0.0,46,0.00,,,0.00,WUHU216WMR968SP,2013-02-23 23:21:00,
2013-02-23 15:26:00,64.4,42.5,30.01,SW,221,0.0,0.0,45,0.00,,,0.00,WUHU216WMR968SP,2013-02-23 23:26:00,
2013-02-23 15:31:00,64.2,42.9,30.01,SSW,208,0.0,0.0,46,0.00,,,0.00,WUHU216WMR968SP,2013-02-23 23:31:00,
2013-02-23 15:36:00,64.0,42.8,30.01,SSW,192,0.0,0.0,46,0.00,,,0.00,WUHU216WMR968SP,2013-02-23 23:36:00,
2013-02-23 15:41:00,63.9,42.7,30.01,South,175,0.0,0.0,46,0.00,,,0.00,WUHU216WMR968SP,2013-02-23 23:41:00,
2013-02-23 15:46:00,63.5,42.3,30.01,SW,218,0.0,0.0,46,0.00,,,0.00,WUHU216WMR968SP,2013-02-23 23:46:00,
2013-02-23 15:51:00,63.5,42.3,30.01,South,183,0.0,0.0,46,0.00,,,0.00,WUHU216WMR968SP,2013-02-23 23:51:00,
2013-02-23 15:56:00,63.1,41.9,30.01,WSW,244,0.0,0.0,46,0.00,,,0.00,WUHU216WMR968SP,2013-02-23 23:56:00,
2013-02-23 16:01:00,62.8,42.8,30.01,WNW,291,0.0,0.0,48,0.00,,,0.00,WUHU216WMR968SP,2013-02-24 00:01:00,
2013-02-23 16:06:00,62.4,43.0,30.01,SW,229,0.0,0.0,49,0.00,,,0.00,WUHU216WMR968SP,2013-02-24 00:06:00,
2013-02-23 16:11:00,62.4,43.0,30.01,SW,227,0.0,0.0,49,0.00,,,0.00,WUHU216WMR968SP,2013-02-24 00:11:00,
2013-02-23 16:16:00,62.2,42.8,30.01,South,182,0.0,0.0,49,0.00,,,0.00,WUHU216WMR968SP,2013-02-24 00:16:00,
2013-02-23 16:21:00,62.2,42.8,29.98,South,177,0.0,0.0,49,0.00,,,0.00,WUHU216WMR968SP,2013-02-24 00:21:00,
2013-02-23 16:26:00,62.1,42.7,29.98,SSE,164,0.0,0.0,49,0.00,,,0.00,WUHU216WMR968SP,2013-02-24 00:26:00,
2013-02-23 16:31:00,61.7,42.3,29.98,ESE,118,0.0,0.0,49,0.00,,,0.00,WUHU216WMR968SP,2013-02-24 00:31:00,
2013-02-23 16:36:00,61.5,42.2,30.01,WSW,241,0.0,0.0,49,0.00,,,0.00,WUHU216WMR968SP,2013-02-24 00:36:00,
2013-02-23 16:41:00,61.3,42.0,30.01,South,190,0.0,0.0,49,0.00,,,0.00,WUHU216WMR968SP,2013-02-24 00:41:00,
2013-02-23 16:46:00,61.0,41.7,30.01,South,190,0.0,0.0,49,0.00,,,0.00,WUHU216WMR968SP,2013-02-24 00:46:00,
2013-02-23 16:51:00,60.8,41.5,30.01,South,177,0.0,0.0,49,0.00,,,0.00,WUHU216WMR968SP,2013-02-24 00:51:00,
2013-02-23 16:56:00,60.4,41.1,30.01,SW,219,0.0,0.0,49,0.00,,,0.00,WUHU216WMR968SP,2013-02-24 00:56:00,
2013-02-23 17:01:00,60.1,42.5,30.01,West,269,0.0,0.0,52,0.00,,,0.00,WUHU216WMR968SP,2013-02-24 01:01:00,
2013-02-23 17:06:00,59.9,42.3,30.01,SW,216,0.0,0.0,52,0.00,,,0.00,WUHU216WMR968SP,2013-02-24 01:06:00,
2013-02-23 17:11:00,59.7,42.1,30.01,SW,225,0.0,0.0,52,0.00,,,0.00,WUHU216WMR968SP,2013-02-24 01:11:00,
2013-02-23 17:16:00,59.4,41.8,30.01,WSW,244,0.0,0.0,52,0.00,,,0.00,WUHU216WMR968SP,2013-02-24 01:16:00,
2013-02-23 17:21:00,58.8,41.2,30.01,SW,220,0.0,0.0,52,0.00,,,0.00,WUHU216WMR968SP,2013-02-24 01:21:00,
2013-02-23 17:26:00,58.5,42.0,30.01,WSW,237,0.0,0.0,54,0.00,,,0.00,WUHU216WMR968SP,2013-02-24 01:26:00,
2013-02-23 17:32:00,57.9,41.4,30.01,West,263,4.5,8.1,54,0.00,,,0.00,WUHU216WMR968SP,2013-02-24 01:32:00,
2013-02-23 17:37:00,57.7,41.2,30.01,SW,226,4.0,8.1,54,0.00,,,0.00,WUHU216WMR968SP,2013-02-24 01:37:00,
2013-02-23 17:42:00,57.4,40.9,30.01,South,172,3.6,7.6,54,0.00,,,0.00,WUHU216WMR968SP,2013-02-24 01:42:00,
2013-02-23 17:47:00,57.2,41.2,30.01,SSW,211,4.5,7.6,55,0.00,,,0.00,WUHU216WMR968SP,2013-02-24 01:47:00,
2013-02-23 17:52:00,57.0,41.1,30.01,WSW,246,0.0,6.3,55,0.00,,,0.00,WUHU216WMR968SP,2013-02-24 01:52:00,
2013-02-23 17:57:00,56.7,40.8,30.01,SSW,194,0.0,4.9,55,0.00,,,0.00,WUHU216WMR968SP,2013-02-24 01:57:00,
2013-02-23 18:02:00,56.5,40.6,30.01,SE,124,0.0,4.9,55,0.00,,,0.00,WUHU216WMR968SP,2013-02-24 02:02:00,
2013-02-23 18:07:00,56.3,40.4,30.01,ESE,116,2.7,4.0,55,0.00,,,0.00,WUHU216WMR968SP,2013-02-24 02:07:00,
2013-02-23 18:12:00,55.9,40.5,30.01,SE,133,0.0,4.0,56,0.00,,,0.00,WUHU216WMR968SP,2013-02-24 02:12:00,
2013-02-23 18:17:00,55.8,40.4,30.01,South,183,0.0,3.6,56,0.00,,,0.00,WUHU216WMR968SP,2013-02-24 02:17:00,
2013-02-23 18:22:00,55.4,40.0,30.04,ESE,106,0.0,4.9,56,0.00,,,0.00,WUHU216WMR968SP,2013-02-24 02:22:00,
2013-02-23 18:27:00,55.0,39.7,30.04,ESE,111,0.0,4.9,56,0.00,,,0.00,WUHU216WMR968SP,2013-02-24 02:27:00,
2013-02-23 18:32:00,54.9,39.6,30.04,SSE,163,0.0,2.7,56,0.00,,,0.00,WUHU216WMR968SP,2013-02-24 02:32:00,
2013-02-23 18:37:00,54.7,39.4,30.01,SW,219,0.0,4.0,56,0.00,,,0.00,WUHU216WMR968SP,2013-02-24 02:37:00,
2013-02-23 18:42:00,54.5,39.2,30.01,SSE,164,0.0,4.0,56,0.00,,,0.00,WUHU216WMR968SP,2013-02-24 02:42:00,
2013-02-23 18:47:00,54.5,39.2,30.01,SSE,163,0.0,3.6,56,0.00,,,0.00,WUHU216WMR968SP,2013-02-24 02:47:00,
2013-02-23 18:52:00,54.3,39.0,30.04,SSE,163,0.0,2.7,56,0.00,,,0.00,WUHU216WMR968SP,2013-02-24 02:52:00,
2013-02-23 18:57:00,54.1,39.3,30.04,SE,146,0.0,2.7,57,0.00,,,0.00,WUHU216WMR968SP,2013-02-24 02:57:00,
2013-02-23 19:02:00,53.8,39.0,30.04,ENE,73,0.0,3.6,57,0.00,,,0.00,WUHU216WMR968SP,2013-02-24 03:02:00,
2013-02-23 19:07:00,53.4,38.6,30.04,ENE,71,0.0,3.6,57,0.00,,,0.00,WUHU216WMR968SP,2013-02-24 03:07:00,
2013-02-23 19:12:00,53.2,38.4,30.04,ENE,76,0.0,0.0,57,0.00,,,0.00,WUHU216WMR968SP,2013-02-24 03:12:00,
2013-02-23 19:17:00,52.9,38.6,30.04,ENE,76,0.0,0.0,58,0.00,,,0.00,WUHU216WMR968SP,2013-02-24 03:17:00,
2013-02-23 19:22:00,52.7,38.4,30.04,ENE,76,0.0,0.0,58,0.00,,,0.00,WUHU216WMR968SP,2013-02-24 03:22:00,
2013-02-23 19:27:00,52.5,38.7,30.04,ENE,76,0.0,0.0,59,0.00,,,0.00,WUHU216WMR968SP,2013-02-24 03:27:00,
2013-02-23 19:32:00,52.3,38.5,30.04,ENE,76,0.0,0.0,59,0.00,,,0.00,WUHU216WMR968SP,2013-02-24 03:32:00,
2013-02-23 19:37:00,51.8,38.4,30.04,ENE,76,0.0,0.0,60,0.00,,,0.00,WUHU216WMR968SP,2013-02-24 03:37:00,
2013-02-23 19:42:00,51.4,38.1,30.04,ENE,76,0.0,0.0,60,0.00,,,0.00,WUHU216WMR968SP,2013-02-24 03:42:00,
2013-02-23 19:47:00,51.1,38.2,30.04,ENE,76,0.0,0.0,61,0.00,,,0.00,WUHU216WMR968SP,2013-02-24 03:47:00,
2013-02-23 19:52:00,50.9,38.4,30.04,ENE,76,0.0,0.0,62,0.00,,,0.00,WUHU216WMR968SP,2013-02-24 03:52:00,
2013-02-23 19:57:00,50.9,38.9,30.04,East,98,0.0,2.7,63,0.00,,,0.00,WUHU216WMR968SP,2013-02-24 03:57:00,
2013-02-23 20:02:00,50.7,39.1,30.04,East,87,2.7,3.1,64,0.00,,,0.00,WUHU216WMR968SP,2013-02-24 04:02:00,
2013-02-23 20:07:00,50.7,39.5,30.04,East,92,0.0,3.1,65,0.00,,,0.00,WUHU216WMR968SP,2013-02-24 04:07:00,
2013-02-23 20:12:00,50.7,39.9,30.04,East,93,0.0,3.1,66,0.00,,,0.00,WUHU216WMR968SP,2013-02-24 04:12:00,
2013-02-23 20:17:00,50.7,39.9,30.04,East,90,0.0,3.1,66,0.00,,,0.00,WUHU216WMR968SP,2013-02-24 04:17:00,
2013-02-23 20:22:00,50.9,40.4,30.04,ENE,75,0.0,3.1,67,0.00,,,0.00,WUHU216WMR968SP,2013-02-24 04:22:00,
2013-02-23 20:27:00,50.9,40.4,30.04,ENE,71,0.0,3.1,67,0.00,,,0.00,WUHU216WMR968SP,2013-02-24 04:27:00,
2013-02-23 20:32:00,50.7,40.3,30.04,ENE,71,0.0,2.7,67,0.00,,,0.00,WUHU216WMR968SP,2013-02-24 04:32:00,
2013-02-23 20:37:00,50.7,40.3,30.04,ENE,71,0.0,0.0,67,0.00,,,0.00,WUHU216WMR968SP,2013-02-24 04:37:00,
2013-02-23 20:42:00,50.5,40.1,30.04,ENE,71,0.0,0.0,67,0.00,,,0.00,WUHU216WMR968SP,2013-02-24 04:42:00,
2013-02-23 20:47:00,50.4,40.0,30.04,ENE,71,0.0,0.0,67,0.00,,,0.00,WUHU216WMR968SP,2013-02-24 04:47:00,
2013-02-23 20:52:00,50.2,39.8,30.04,ENE,71,0.0,0.0,67,0.00,,,0.00,WUHU216WMR968SP,2013-02-24 04:52:00,
2013-02-23 20:57:00,49.8,39.8,30.04,ENE,71,0.0,0.0,68,0.00,,,0.00,WUHU216WMR968SP,2013-02-24 04:57:00,
2013-02-23 21:02:00,49.6,39.6,30.04,ENE,71,0.0,0.0,68,0.00,,,0.00,WUHU216WMR968SP,2013-02-24 05:02:00,
2013-02-23 21:07:00,49.5,39.5,30.04,East,93,0.0,0.0,68,0.00,,,0.00,WUHU216WMR968SP,2013-02-24 05:07:00,
2013-02-23 21:12:00,49.5,39.9,30.04,East,93,0.0,0.0,69,0.00,,,0.00,WUHU216WMR968SP,2013-02-24 05:12:00,
2013-02-23 21:17:00,49.3,39.7,30.04,East,93,0.0,0.0,69,0.00,,,0.00,WUHU216WMR968SP,2013-02-24 05:17:00,
2013-02-23 21:22:00,49.3,39.7,30.04,East,93,0.0,0.0,69,0.00,,,0.00,WUHU216WMR968SP,2013-02-24 05:22:00,
2013-02-23 21:27:00,49.1,39.5,30.04,East,97,0.0,0.0,69,0.00,,,0.00,WUHU216WMR968SP,2013-02-24 05:27:00,
2013-02-23 21:32:00,49.1,39.5,30.04,ENE,78,0.0,3.6,69,0.00,,,0.00,WUHU216WMR968SP,2013-02-24 05:32:00,
2013-02-23 21:37:00,49.1,39.5,30.04,ENE,76,0.0,3.6,69,0.00,,,0.00,WUHU216WMR968SP,2013-02-24 05:37:00,
2013-02-23 21:42:00,48.9,39.3,30.04,ENE,76,0.0,2.7,69,0.00,,,0.00,WUHU216WMR968SP,2013-02-24 05:42:00,
2013-02-23 21:47:00,48.7,39.1,30.04,ENE,76,0.0,0.0,69,0.00,,,0.00,WUHU216WMR968SP,2013-02-24 05:47:00,
2013-02-23 21:52:00,48.6,39.0,30.04,ENE,76,0.0,0.0,69,0.00,,,0.00,WUHU216WMR968SP,2013-02-24 05:52:00,
2013-02-23 21:57:00,48.6,39.0,30.04,ENE,76,0.0,0.0,69,0.00,,,0.00,WUHU216WMR968SP,2013-02-24 05:57:00,
2013-02-23 22:02:00,48.6,39.0,30.04,East,86,0.0,0.0,69,0.00,,,0.00,WUHU216WMR968SP,2013-02-24 06:02:00,
2013-02-23 22:07:00,48.6,39.4,30.07,North,353,0.0,0.0,70,0.00,,,0.00,WUHU216WMR968SP,2013-02-24 06:07:00,
2013-02-23 22:12:00,48.6,39.4,30.07,North,353,0.0,0.0,70,0.00,,,0.00,WUHU216WMR968SP,2013-02-24 06:12:00,
2013-02-23 22:17:00,48.6,39.4,30.07,ENE,62,0.0,0.0,70,0.00,,,0.00,WUHU216WMR968SP,2013-02-24 06:17:00,
2013-02-23 22:22:00,48.6,39.4,30.07,East,84,2.2,3.6,70,0.00,,,0.00,WUHU216WMR968SP,2013-02-24 06:22:00,
2013-02-23 22:27:00,48.7,39.5,30.07,East,85,0.0,3.6,70,0.00,,,0.00,WUHU216WMR968SP,2013-02-24 06:27:00,
2013-02-23 22:32:00,48.6,39.4,30.07,East,85,0.0,3.6,70,0.00,,,0.00,WUHU216WMR968SP,2013-02-24 06:32:00,
2013-02-23 22:37:00,48.6,39.4,30.07,East,85,0.0,0.0,70,0.00,,,0.00,WUHU216WMR968SP,2013-02-24 06:37:00,
2013-02-23 22:42:00,48.4,39.2,30.07,East,85,0.0,0.0,70,0.00,,,0.00,WUHU216WMR968SP,2013-02-24 06:42:00,
2013-02-23 22:47:00,48.2,39.0,30.07,East,85,0.0,0.0,70,0.00,,,0.00,WUHU216WMR968SP,2013-02-24 06:47:00,
2013-02-23 22:52:00,48.2,39.3,30.07,East,85,0.0,0.0,71,0.00,,,0.00,WUHU216WMR968SP,2013-02-24 06:52:00,
2013-02-23 22:57:00,48.0,39.1,30.07,ENE,71,0.0,3.6,71,0.00,,,0.00,WUHU216WMR968SP,2013-02-24 06:57:00,
2013-02-23 23:02:00,48.0,39.1,30.07,East,79,0.0,3.6,71,0.00,,,0.00,WUHU216WMR968SP,2013-02-24 07:02:00,
2013-02-23 23:08:00,48.0,39.5,30.07,ENE,78,0.0,2.7,72,0.00,,,0.00,WUHU216WMR968SP,2013-02-24 07:08:00,
2013-02-23 23:13:00,48.0,39.1,30.07,East,79,0.0,0.0,71,0.00,,,0.00,WUHU216WMR968SP,2013-02-24 07:13:00,
2013-02-23 23:18:00,48.2,39.3,30.07,East,79,0.0,0.0,71,0.00,,,0.00,WUHU216WMR968SP,2013-02-24 07:18:00,
2013-02-23 23:23:00,48.2,39.3,30.07,East,79,0.0,0.0,71,0.00,,,0.00,WUHU216WMR968SP,2013-02-24 07:23:00,
2013-02-23 23:28:00,48.4,39.5,30.07,ENE,78,0.0,0.0,71,0.00,,,0.00,WUHU216WMR968SP,2013-02-24 07:28:00,
2013-02-23 23:33:00,48.4,39.5,30.07,East,79,0.0,0.0,71,0.00,,,0.00,WUHU216WMR968SP,2013-02-24 07:33:00,
2013-02-23 23:38:00,48.4,39.5,30.07,East,79,0.0,0.0,71,0.00,,,0.00,WUHU216WMR968SP,2013-02-24 07:38:00,
2013-02-23 23:43:00,48.2,39.3,30.07,ENE,78,0.0,0.0,71,0.00,,,0.00,WUHU216WMR968SP,2013-02-24 07:43:00,
2013-02-23 23:48:00,47.8,38.9,30.07,ENE,78,0.0,0.0,71,0.00,,,0.00,WUHU216WMR968SP,2013-02-24 07:48:00,
2013-02-23 23:53:00,48.0,39.1,30.07,ENE,78,0.0,0.0,71,0.00,,,0.00,WUHU216WMR968SP,2013-02-24 07:53:00,
2013-02-23 23:58:00,48.0,39.1,30.07,East,79,0.0,0.0,71,0.00,,,0.00,WUHU216WMR968SP,2013-02-24 07:58:00,